This is the latest recevied weather packets stored in our database for station/object GW4003. If no packets are shown the sender has not sent any weather packets the latest 10 day(s).
| Time | Temp. | Humidity | Pressure | Rain* | Wind** | Luminosity | Snow |
|---|---|---|---|---|---|---|---|
| 1778100436 | 2.78° C | 74% | 1021 hPa | 1.27 mm | - | - | - |
| 1778100133 | 2.78° C | 74% | 1021.1 hPa | 1.02 mm | - | - | - |
| 1778099829 | 2.78° C | 75% | 1021.1 hPa | 1.27 mm | - | - | - |
| 1778099525 | 2.78° C | 75% | 1021.2 hPa | 1.27 mm | - | - | - |
| 1778099221 | 2.22° C | 75% | 1021.3 hPa | 1.27 mm | - | - | - |
| 1778098918 | 2.78° C | 76% | 1021.3 hPa | 1.27 mm | - | - | - |
| 1778098614 | 2.22° C | 76% | 1021.3 hPa | 1.52 mm | - | - | - |
| 1778098311 | 2.22° C | 76% | 1021.3 hPa | 1.52 mm | - | - | - |
| 1778098007 | 2.78° C | 78% | 1021.3 hPa | 1.78 mm | - | - | - |
| 1778097704 | 2.22° C | 80% | 1021.3 hPa | 1.78 mm | - | - | - |
| 1778097401 | 2.22° C | 80% | 1021.3 hPa | 2.29 mm | - | - | - |
| 1778097098 | 2.22° C | 81% | 1021.4 hPa | 2.29 mm | - | - | - |
| 1778096795 | 1.67° C | 81% | 1021.5 hPa | 2.54 mm | - | - | - |
| 1778096491 | 1.67° C | 82% | 1021.5 hPa | 2.79 mm | - | - | - |
| 1778096191 | 1.67° C | 83% | 1021.6 hPa | 2.79 mm | - | - | - |
| 1778095888 | 1.67° C | 82% | 1021.5 hPa | 3.05 mm | - | - | - |
| 1778095585 | 1.67° C | 83% | 1021.6 hPa | 3.05 mm | - | - | - |
| 1778095281 | 1.67° C | 83% | 1021.6 hPa | 3.05 mm | - | - | - |
| 1778094978 | 1.67° C | 84% | 1021.7 hPa | 3.05 mm | - | - | - |
| 1778094675 | 1.67° C | 84% | 1021.7 hPa | 3.05 mm | - | - | - |
| 1778094371 | 2.22° C | 87% | 1021.9 hPa | 3.05 mm | - | - | - |
| 1778094068 | 1.11° C | 86% | 1022 hPa | 2.79 mm | - | - | - |
| 1778093765 | 1.67° C | 87% | 1021.9 hPa | 2.79 mm | - | - | - |
| 1778093461 | 1.11° C | 87% | 1021.9 hPa | 2.79 mm | - | - | - |
| 1778093158 | 1.11° C | 88% | 1022 hPa | 2.79 mm | - | - | - |
* Rain latest hour (hover to see other rain measurements)
** Current wind speed in m/s (hover to see current wind gust speed)